Pittsburg, KS

2:33 AM CST on February 21, 2017 (GMT -0600)
Atkinson Municipal

Weather History for KPTS - August, 2013

Change the Weather History Date:

Tuesday, August 13, 2013

  Actual Average (KJLN) Record (KJLN)
Temperature  
Mean Temperature 74 °F -  
Max Temperature 80 °F 88 °F 103 °F (1956)
Min Temperature 68 °F 67 °F 49 °F (2004)
Cooling Degree Days 9    
Growing Degree Days 24 (Base 50)    
Moisture  
Dew Point 69 °F    
Average Humidity 82    
Maximum Humidity 100    
Minimum Humidity 57    
Precipitation  
Precipitation 0.02 in - - ()
Sea Level Pressure  
Sea Level Pressure 30.05 in    
Wind  
Wind Speed 3 mph (ENE)    
Max Wind Speed 12 mph    
Max Gust Speed -    
Visibility 10 miles    
Events      
Averages and records for this station are not official NWS values.
T = Trace of Precipitation, MM = Missing Value Source: NWS Daily Summary

Daily Weather History Graph

Daily Weather History Graph

Search for Another Location

Airport or City:

Trip Planner

Search our weather history database for the weather conditions in past years. The results will help you decide how hot, cold, wet, or windy it might be!

Date:

Astronomy

Aug. 13, 2013 Rise Set
Actual Time 6:33 AM CDT 8:13 PM CDT
Civil Twilight 6:05 AM CDT 8:41 PM CDT
Nautical Twilight 5:31 AM CDT 9:14 PM CDT
Astronomical Twilight 4:56 AM CDT 9:50 PM CDT
Moon 1:19 PM CDT (8/13) 11:59 PM CDT (8/13)
Length of Visible Light 14h 35m
Length of Day
13h 39m
Waxing Crescent, 42% of the Moon is Illuminated
Aug 13
Waxing Crescent
Aug 14
First Quarter
Aug 20
Full
Aug 28
Last Quarter
Sep 5
New

Hourly Weather History & Observations

Time (CDT) Temp. Heat Index Dew Point Humidity Pressure Visibility Wind Dir Wind Speed Gust Speed Precip Events Conditions
12:15 AM 76.1 °F - - N/A% 30.01 in 10.0 mi Calm Calm - N/A   Mostly Cloudy
12:35 AM 75.7 °F - - N/A% 30.00 in 10.0 mi Calm Calm - N/A   Scattered Clouds
12:55 AM 75.7 °F - - N/A% 30.01 in 10.0 mi Calm Calm - N/A   Scattered Clouds
1:15 AM 76.1 °F - - N/A% 30.01 in 10.0 mi Calm Calm - N/A   Scattered Clouds
1:35 AM 76.1 °F - - N/A% 30.02 in 10.0 mi Calm Calm - N/A   Clear
1:55 AM 74.7 °F - - N/A% 30.02 in 10.0 mi Calm Calm - N/A   Clear
2:15 AM 73.4 °F - - N/A% 30.02 in 10.0 mi NE 4.6 mph - N/A   Clear
2:35 AM 74.8 °F - 75.0 °F 100% 30.02 in 10.0 mi Calm Calm - N/A   Clear
2:55 AM 74.5 °F - 74.5 °F 100% 30.02 in 10.0 mi Calm Calm - N/A   Clear
3:15 AM 73.4 °F - 73.6 °F 100% 30.02 in 10.0 mi Calm Calm - N/A   Clear
3:35 AM 73.2 °F - 73.4 °F 100% 30.01 in 10.0 mi NNE 3.5 mph - N/A   Clear
3:55 AM - - - N/A% 30.01 in 10.0 mi Calm Calm - 0.01 in   Clear
4:15 AM - - - N/A% 30.01 in 10.0 mi NE 3.5 mph - N/A   Clear
4:35 AM - - - N/A% 30.01 in 10.0 mi Calm Calm - N/A   Clear
4:55 AM 71.2 °F - - N/A% 30.01 in 10.0 mi Calm Calm - N/A   Clear
5:15 AM 70.9 °F - - N/A% 30.01 in 10.0 mi Calm Calm - N/A   Clear
5:35 AM 70.9 °F - - N/A% 30.01 in 10.0 mi Calm Calm - N/A   Clear
5:55 AM 70.9 °F - - N/A% 30.02 in 10.0 mi NNE 4.6 mph - N/A   Clear
6:15 AM 70.9 °F - - N/A% 30.02 in 10.0 mi Calm Calm - N/A   Clear
6:35 AM 70.9 °F - - N/A% 30.02 in 10.0 mi NNE 4.6 mph - N/A   Clear
6:55 AM 70.9 °F - - N/A% 30.03 in 10.0 mi Calm Calm - N/A   Clear
7:15 AM 70.9 °F - - N/A% 30.04 in 10.0 mi ENE 3.5 mph - N/A   Clear
7:35 AM 71.1 °F - - N/A% 30.04 in 10.0 mi ENE 4.6 mph - N/A   Clear
7:55 AM 72.0 °F - 72.3 °F 100% 30.04 in 10.0 mi ENE 5.8 mph - N/A   Clear
8:15 AM 73.2 °F - 73.4 °F 100% 30.04 in 10.0 mi East 6.9 mph - N/A   Clear
8:35 AM - - - N/A% 30.05 in 10.0 mi ENE 6.9 mph - N/A   Clear
8:55 AM 75.9 °F - 75.9 °F 100% 30.05 in 10.0 mi ENE 6.9 mph - N/A   Clear
9:15 AM 76.1 °F - 76.1 °F 100% 30.06 in 10.0 mi ENE 9.2 mph - N/A   Clear
9:35 AM 76.1 °F - 76.1 °F 100% 30.07 in 10.0 mi ENE 8.1 mph - N/A   Clear
9:55 AM 76.1 °F - 75.9 °F 99% 30.07 in 10.0 mi East 8.1 mph - N/A   Clear
10:15 AM 76.1 °F - 75.4 °F 98% 30.07 in 10.0 mi ENE 8.1 mph - N/A   Clear
10:35 AM 76.1 °F - 75.0 °F 96% 30.08 in 10.0 mi ENE 9.2 mph - N/A   Clear
10:55 AM 76.1 °F - 75.0 °F 96% 30.08 in 10.0 mi ENE 6.9 mph - N/A   Scattered Clouds
11:15 AM 76.1 °F - 75.6 °F 98% 30.09 in 10.0 mi NE 8.1 mph - N/A   Scattered Clouds
11:35 AM 76.1 °F - 75.4 °F 98% 30.09 in 10.0 mi ENE 8.1 mph - N/A   Clear
11:55 AM 76.1 °F - 74.7 °F 95% 30.09 in 10.0 mi ENE 8.1 mph - N/A   Clear
12:15 PM 76.3 °F - 73.9 °F 92% 30.09 in 10.0 mi East 8.1 mph - N/A   Scattered Clouds
12:35 PM 78.3 °F - 75.6 °F 91% 30.08 in 10.0 mi East 6.9 mph - N/A   Scattered Clouds
12:55 PM 78.4 °F - 73.8 °F 85% 30.08 in 10.0 mi ENE 8.1 mph - N/A   Scattered Clouds
1:15 PM 78.4 °F - 67.6 °F 69% 30.06 in 10.0 mi East 9.2 mph - N/A   Clear
1:35 PM 78.4 °F - 66.6 °F 67% 30.07 in 10.0 mi ENE 6.9 mph - N/A   Clear
1:55 PM 78.4 °F - 66.0 °F 66% 30.07 in 10.0 mi East 6.9 mph - N/A   Clear
2:15 PM 78.4 °F - 64.8 °F 63% 30.07 in 10.0 mi East 5.8 mph - N/A   Scattered Clouds
2:35 PM 78.4 °F - 65.1 °F 63% 30.07 in 10.0 mi ENE 8.1 mph - N/A   Scattered Clouds
2:55 PM 78.4 °F - 64.8 °F 63% 30.07 in 10.0 mi ENE 6.9 mph - N/A   Scattered Clouds
3:15 PM 78.6 °F - 65.5 °F 64% 30.06 in 10.0 mi East 10.4 mph - N/A   Scattered Clouds
3:35 PM 79.3 °F - 67.1 °F 66% 30.05 in 10.0 mi NNE 9.2 mph - N/A   Clear
3:55 PM 79.3 °F - 66.7 °F 65% 30.05 in 10.0 mi East 8.1 mph - N/A   Clear
4:15 PM 80.1 °F 82.2 °F 66.6 °F 63% 30.04 in 10.0 mi NE 10.4 mph - N/A   Clear
4:35 PM 78.4 °F - 64.9 °F 63% 30.04 in 10.0 mi ENE 11.5 mph - N/A   Clear
4:55 PM 78.4 °F - 63.9 °F 61% 30.04 in 10.0 mi NE 8.1 mph - N/A   Clear
5:15 PM 78.4 °F - 64.2 °F 62% 30.04 in 10.0 mi NE 8.1 mph - N/A   Clear
5:35 PM 79.5 °F - 64.2 °F 59% 30.04 in 7.0 mi NNE 9.2 mph - N/A   Clear
5:55 PM 80.2 °F 81.8 °F 63.5 °F 57% 30.04 in 10.0 mi NE 11.5 mph - N/A   Clear
6:55 PM 78.4 °F - 62.8 °F 58% 30.04 in 10.0 mi NE 9.2 mph - 0.01 in   Clear
7:15 PM 76.8 °F - 61.2 °F 58% 30.04 in 10.0 mi NE 8.1 mph - N/A   Clear
7:35 PM 76.1 °F - 61.7 °F 61% 30.04 in 10.0 mi NE 6.9 mph - N/A   Clear
7:55 PM 74.7 °F - 63.1 °F 67% 30.05 in 10.0 mi NNE 3.5 mph - N/A   Clear
8:15 PM 73.0 °F - 62.6 °F 70% 30.06 in 10.0 mi Calm Calm - N/A   Clear
8:35 PM 71.2 °F - 63.1 °F 75% 30.06 in 10.0 mi Calm Calm - N/A   Clear
8:55 PM 70.9 °F - 64.2 °F 79% 30.07 in 10.0 mi NNE 3.5 mph - N/A   Clear
9:15 PM 70.9 °F - 64.9 °F 81% 30.07 in 10.0 mi NE 4.6 mph - N/A   Clear
9:35 PM 70.9 °F - 64.0 °F 79% 30.08 in 10.0 mi Calm Calm - N/A   Clear
9:55 PM 70.9 °F - 67.3 °F 88% 30.09 in 10.0 mi Calm Calm - N/A   Clear
10:15 PM 70.9 °F - 70.0 °F 97% 30.09 in 10.0 mi NE 3.5 mph - N/A   Clear
10:35 PM 68.9 °F - 68.7 °F 99% 30.10 in 10.0 mi NE 3.5 mph - N/A   Clear
10:55 PM 68.4 °F - 68.5 °F 100% 30.10 in 10.0 mi NE 3.5 mph - N/A   Clear
11:15 PM 68.5 °F - 68.7 °F 100% 30.10 in 10.0 mi NE 3.5 mph - N/A   Clear
11:35 PM 68.7 °F - 68.5 °F 99% 30.10 in 10.0 mi NE 3.5 mph - N/A   Clear
11:55 PM 68.4 °F - 68.5 °F 100% 30.10 in 10.0 mi NE 3.5 mph - N/A   Clear